sat.trackr.live / text

‹ back to catalog

STARLINK-35448

NORAD 66465 · 2025-262K

PAYLOAD ACTIVE UNKNOWN

§ Identity

Operator
Country
US
Launch date
2025-11-15
Launch site
AFETR
Launch vehicle
Mass (kg)
RCS (m²)

Purposes: comms

External: N2YO · Heavens-Above · Gunter

§ Orbital elements

Epoch: 2026-05-25T04:33:56.247840Z

Period
94.27 min
Inclination
43.0008°
Eccentricity
0.0002081
Mean motion
15.27572690 rev/d
Perigee alt
481.6 km
Apogee alt
484.5 km
Semi-major
6,861.2 km
B*
3.0192e-4
RAAN
224.3532°
Arg perigee
266.8481°
Mean anomaly
93.2132°
Rev number
3,060

§ Raw data

STARLINK-354481 66465U 25262K   26145.19023435  .00008053  00000+0  30192-3 0  99922 66465  43.0008 224.3532 0002081 266.8481  93.2132 15.27572690 30604

JSON: /api/v1/satellites/66465 · /tle

For live sub-satellite position, see the globe view (requires WebGL).

§ Visibility from observer

Set your observer location to see the next 7 days of passes ≥ 10°. The values pass through the URL so the page stays shareable.

No JS? Fill the form by hand. The geolocation button needs JavaScript.